{"data":{"norad_id":65346,"epoch":"2026-05-24T15:59:38.231808Z","epoch_age_seconds":107097,"freshness":"FRESH","line1":"1 65346U 25189Z   26144.66641472  .00017568  00000+0  60394-3 0  9993","line2":"2 65346  53.1582 213.5198 0001130  79.7850 280.3278 15.30195938 42752","mean_motion":15.30195938,"eccentricity":0.000113,"inclination_deg":53.1582,"raan_deg":213.5198,"arg_perigee_deg":79.785,"mean_anomaly_deg":280.3278,"bstar":0.00060394,"rev_number":4275,"period_min":94.105595514919,"perigee_km":474.45276769162,"apogee_km":476.00162800033,"semimajor_km":6853.364197846,"source":"CELESTRAK","updated_at":"2026-05-25T13:38:20.763257Z"}}